sat.trackr.live / text

‹ back to catalog

STARLINK-11445 [DTC]

NORAD 62414 · 2024-249F

PAYLOAD ACTIVE UNKNOWN

§ Identity

Operator
Country
US
Launch date
2024-12-23
Launch site
AFETR
Launch vehicle
Mass (kg)
RCS (m²)

Purposes: comms

External: N2YO · Heavens-Above · Gunter

§ Orbital elements

Epoch: 2026-09-21T17:25:42.945600Z

Period
91.67 min
Inclination
43.0003°
Eccentricity
0.0002932
Mean motion
15.70864960 rev/d
Perigee alt
354.4 km
Apogee alt
358.4 km
Semi-major
6,734.6 km
B*
6.8277e-4
RAAN
65.8718°
Arg perigee
269.1139°
Mean anomaly
90.9393°
Rev number
10,031

§ Raw data

STARLINK-11445 [DTC]1 62414U 24249F   26264.72619150  .00088199  00000+0  68277-3 0  99962 62414  43.0003  65.8718 0002932 269.1139  90.9393 15.70864960100315

JSON: /api/v1/satellites/62414 · /tle

For live sub-satellite position, see the globe view (requires WebGL).

§ Visibility from observer

Set your observer location to see the next 7 days of passes ≥ 10°. The values pass through the URL so the page stays shareable.

No JS? Fill the form by hand. The geolocation button needs JavaScript.